Regional Weather Roundup
Issued by NWS

Home | Current Version | Previous Version | Text Only | Print | Product List | Glossary On
Versions: 1 2 3 4 5 6 7 8 9 10 11 12 13 14 15 16 17 18 19 20 21 22 23 24 25 26 27 28 29 30 31 32 33 34 35 36 37 38 39 40 41 42 43 44 45 46 47 48 49 50
000
ASUS43 KLSX 062007
RWRMO

WEATHER SUMMARY FOR MISSOURI
NATIONAL WEATHER SERVICE SPRINGFIELD MO
200 PM CST TUE DEC 06 2016

NOTE: "FAIR" INDICATES FEW OR NO CLOUDS BELOW 12,000 FEET WITH NO
       SIGNIFICANT WEATHER AND/OR OBSTRUCTIONS TO VISIBILITY.
       CURRENT SKY AND/OR WEATHER CONDITIONS ARE NOT AVAILABLE FOR
       CHILLICOTHE AND FARMINGTON.

MOZ001>031-035>038-043-044-053-054-062100-
...NORTHERN AND WESTERN MISSOURI...

CITY           SKY/WX    TMP DP  RH WIND       PRES   REMARKS
KANSAS CTY INT MOSUNNY   38  14  37 NW8       30.04S
KANSAS C DTWN  SUNNY     38  14  37 NW10G21   30.05S
LEE`S SUMMIT   SUNNY     37  14  38 W13       30.04S WCI  29
ST JOSEPH      SUNNY     36  15  42 NW18      30.05S WCI  26
CHILLICOTHE      N/A     38  18  44 NW13G18   30.02S WCI  30
KIRKSVILLE     SUNNY     38  20  48 W16       29.96S WCI  29

$$
MOZ066>068-077>081-088>096-101>105-062100-
...SOUTHWEST MISSOURI...

CITY           SKY/WX    TMP DP  RH WIND       PRES   REMARKS
SPRINGFIELD    MOSUNNY   42  25  50 N9        30.00S
JOPLIN         MOSUNNY   42  25  50 N13       30.05S
BRANSON        CLOUDY    41  34  75 NW9       30.00S

$$
MOZ032>034-039>042-045>050-055>058-069>072-062100-
...CENTRAL MISSOURI...

CITY           SKY/WX    TMP DP  RH WIND       PRES   REMARKS
COLUMBIA       SUNNY     40  24  53 NW14      29.99R
JEFFERSON CITY SUNNY     40  25  55 NW14      30.01R
ROLLA          CLOUDY    38  34  85 NW13      29.97R WCI  30
SEDALIA        MOSUNNY   40  21  46 W12       30.03R
OSAGE BEACH    MOSUNNY   41  23  48 NW9G18    30.02R

$$
MOZ051-052-059>065-062100-
...EAST CENTRAL MISSOURI...

CITY           SKY/WX    TMP DP  RH WIND       PRES   REMARKS
ST LOUIS INTL  CLOUDY    42  34  73 W15G24    29.94R
SPIRIT OF STL  CLOUDY    41  37  86 W13       29.96R
ST CHARLES     CLOUDY    41  37  86 NW10      29.95R

$$
MOZ072>076-082>087-097>100-106>115-062100-
...SOUTH CENTRAL AND SOUTHEAST MISSOURI...

CITY           SKY/WX    TMP DP  RH WIND       PRES   REMARKS
CAPE GIRARDEAU CLOUDY    45  36  70 N14       29.92R
FARMINGTON     CLOUDY    39  35  86 NW9       29.94R
POPLAR BLUFF   SUNNY     51  39  63 N13       29.91R
WEST PLAINS    CLOUDY    40  35  83 N10       29.98R

$$


USA.gov is the U.S. government's official web portal to all federal, state and local government web resources and services.